Location: Cactus School
(34.5700°N, 118.0931°W)
Time: 19:54:30
(UTC-07:00)

Transit 4A - Pass Details

Date: 13 April 2024
Orbit: 871 x 971 km, 66.8° (Epoch: 21 May)

Event Time Altitude Azimuth Distance (km) Brightness Sun altitude
Rises 13:50:03 0° 181° (S) 3,569 11.3 61.7°
Reaches altitude 10° 13:52:47 10° 173° (S) 2,613 10.7 61.4°
Maximum altitude 13:58:14 36° 109° (ESE) 1,408 9.3 60.8°
Drops below altitude 10° 14:03:35 10° 45° (NE) 2,565 10.0 60.1°
Sets 14:06:14 0° 37° (NE) 3,495 10.6 59.8°
